Location: Joplin, MO
(37.0842°N, 94.5133°W)
Time: 09:11:02
(UTC+02:00)

Transit 2A - Pass Details

Date: 04 April 2023
Orbit: 591 x 964 km, 66.7° (Epoch: 03 June)

Event Time Altitude Azimuth Distance (km) Brightness Sun altitude
Exits shadow 11:12:09 42° 351° (N) 1,203 7.1 -31.6°
Drops below altitude 10° 11:16:26 10° 20° (NNE) 2,575 9.3 -30.9°
Sets 11:19:08 0° 24° (NNE) 3,564 10.3 -30.5°
